| time (UTC) | temp F | wind direction | speed MPH | gust MPH | rain 1hr in | rain 24hr in | rain mn in | humidity % | barometer mb |
| 20260505090005 | 66 | 74 | 2.0 | 8.0 | 0.00 | 0.00 | 0.00 | 39 | 1016.3 |
| 20260505085403 | 66 | 89 | 2.0 | 7.0 | 0.00 | 0.00 | 0.00 | 42 | 1016.3 |
| 20260505084505 | 66 | 56 | 2.0 | 12.0 | 0.00 | 0.00 | 0.00 | 45 | 1016.4 |
| 20260505083604 | 65 | 90 | 2.0 | 8.0 | 0.00 | 0.00 | 0.00 | 46 | 1016.4 |
| 20260505082706 | 65 | 90 | 1.0 | 10.0 | 0.00 | 0.00 | 0.00 | 47 | 1016.5 |
| 20260505081804 | 64 | 86 | 2.0 | 10.0 | 0.00 | 0.00 | 0.00 | 49 | 1016.5 |
| 20260505080903 | 64 | 68 | 2.0 | 10.0 | 0.00 | 0.00 | 0.00 | 48 | 1016.7 |
| 20260505080005 | 66 | 57 | 2.0 | 11.0 | 0.00 | 0.00 | 0.00 | 47 | 1016.6 |
| 20260505075403 | 66 | 56 | 2.0 | 11.0 | 0.00 | 0.00 | 0.00 | 47 | 1016.5 |
| 20260505074503 | 65 | 88 | 2.0 | 9.0 | 0.00 | 0.00 | 0.00 | 48 | 1016.3 |
| 20260505073603 | 65 | 84 | 2.0 | 9.0 | 0.00 | 0.00 | 0.00 | 49 | 1016.4 |
| 20260505072914 | 64 | 70 | 3.0 | 11.0 | 0.00 | 0.00 | 0.00 | 48 | 1016.5 |
| 20260505071803 | 64 | 47 | 1.0 | 7.0 | 0.00 | 0.00 | 0.00 | 48 | 1016.5 |
| 20260505070903 | 63 | 79 | 2.0 | 12.0 | 0.00 | 0.00 | 0.00 | 51 | 1016.7 |
| 20260505070216 | 63 | 76 | 2.0 | 12.0 | 0.00 | 0.00 | 0.00 | 54 | 1016.7 |
| 20260505065404 | 63 | 89 | 2.0 | 10.0 | 0.00 | 0.00 | 0.00 | 55 | 1016.6 |
| 20260505064503 | 63 | 47 | 1.0 | 6.0 | 0.00 | 0.00 | 0.00 | 54 | 1016.6 |
| 20260505063603 | 62 | 107 | 2.0 | 9.0 | 0.00 | 0.00 | 0.00 | 55 | 1016.5 |
| 20260505062703 | 61 | 105 | 1.0 | 7.0 | 0.00 | 0.00 | 0.00 | 55 | 1016.4 |
| 20260505061804 | 61 | 81 | 2.0 | 9.0 | 0.00 | 0.00 | 0.00 | 55 | 1016.3 |
| 20260505060903 | 62 | 75 | 1.0 | 6.0 | 0.00 | 0.00 | 0.00 | 55 | 1016.4 |
| 20260505060217 | 61 | 337 | 1.0 | 7.0 | 0.00 | 0.00 | 0.00 | 57 | 1016.5 |
| 20260505055404 | 61 | 351 | 1.0 | 8.0 | 0.00 | 0.00 | 0.00 | 58 | 1016.3 |
| 20260505054503 | 60 | 56 | 1.0 | 8.0 | 0.00 | 0.00 | 0.00 | 59 | 1016.2 |
| 20260505053604 | 59 | 336 | 1.0 | 11.0 | 0.00 | 0.00 | 0.00 | 61 | 1016.1 |
| 20260505052703 | 59 | 89 | 2.0 | 8.0 | 0.00 | 0.00 | 0.00 | 63 | 1016.0 |
| 20260505051803 | 59 | 54 | 3.0 | 13.0 | 0.00 | 0.00 | 0.00 | 61 | 1016.1 |
| 20260505050904 | 59 | 98 | 2.0 | 11.0 | 0.00 | 0.00 | 0.00 | 62 | 1016.1 |
| 20260505040904 | 56 | 349 | 1.0 | 7.0 | 0.00 | 0.00 | 0.00 | 68 | 1015.8 |
| 20260505040005 | 56 | 353 | 1.0 | 7.0 | 0.00 | 0.00 | 0.00 | 69 | 1015.7 |
| 20260505035403 | 56 | 112 | 0.0 | 7.0 | 0.00 | 0.00 | 0.00 | 70 | 1015.7 |
| 20260505034504 | 55 | 338 | 1.0 | 7.0 | 0.00 | 0.00 | 0.00 | 71 | 1015.6 |
| 20260505033604 | 54 | 42 | 0.0 | 4.0 | 0.00 | 0.00 | 0.00 | 72 | 1015.4 |
| 20260505032703 | 54 | 99 | 1.0 | 7.0 | 0.00 | 0.00 | 0.00 | 72 | 1015.4 |
| 20260505031803 | 54 | 74 | 1.0 | 7.0 | 0.00 | 0.00 | 0.00 | 72 | 1015.3 |
| 20260505030904 | 53 | 21 | 1.0 | 5.0 | 0.00 | 0.00 | 0.00 | 73 | 1015.3 |
| 20260505030007 | 53 | 60 | 1.0 | 5.0 | 0.00 | 0.00 | 0.00 | 73 | 1015.3 |
| 20260505025404 | 53 | 86 | 1.0 | 6.0 | 0.00 | 0.00 | 0.00 | 73 | 1015.3 |
| 20260505024505 | 53 | 77 | 1.0 | 6.0 | 0.00 | 0.00 | 0.00 | 74 | 1015.3 |
| 20260505023604 | 53 | 91 | 1.0 | 7.0 | 0.00 | 0.00 | 0.00 | 74 | 1015.2 |
| 20260505022705 | 53 | 84 | 1.0 | 9.0 | 0.00 | 0.00 | 0.00 | 74 | 1015.2 |
| 20260505022014 | 53 | 82 | 1.0 | 7.0 | 0.00 | 0.00 | 0.00 | 74 | 1015.3 |
| 20260505020904 | 54 | 68 | 1.0 | 6.0 | 0.00 | 0.00 | 0.00 | 74 | 1015.4 |
| 20260505020007 | 54 | 77 | 1.0 | 6.0 | 0.00 | 0.00 | 0.00 | 74 | 1015.5 |
| 20260505015404 | 54 | 97 | 0.0 | 5.0 | 0.00 | 0.00 | 0.00 | 74 | 1015.5 |
| 20260505014504 | 54 | 108 | 1.0 | 7.0 | 0.00 | 0.00 | 0.00 | 74 | 1015.6 |
| 20260505013604 | 54 | 77 | 1.0 | 7.0 | 0.00 | 0.00 | 0.00 | 74 | 1015.6 |
| 20260505012704 | 54 | 75 | 1.0 | 6.0 | 0.00 | 0.00 | 0.00 | 75 | 1015.6 |
| 20260505011804 | 54 | 80 | 0.0 | 3.0 | 0.00 | 0.00 | 0.00 | 75 | 1015.6 |
| 20260505010903 | 54 | 60 | 1.0 | 5.0 | 0.00 | 0.00 | 0.00 | 76 | 1015.6 |
| 20260505010004 | 54 | 87 | 1.0 | 7.0 | 0.00 | 0.00 | 0.00 | 76 | 1015.6 |
| 20260505005616 | 54 | 85 | 1.0 | 7.0 | 0.00 | 0.00 | 0.00 | 76 | 1015.5 |
| 20260505004713 | 54 | 40 | 1.0 | 5.0 | 0.00 | 0.00 | 0.00 | 75 | 1015.6 |
| 20260505003603 | 54 | 51 | 1.0 | 8.0 | 0.00 | 0.00 | 0.00 | 75 | 1015.6 |
| 20260505002703 | 55 | 89 | 1.0 | 6.0 | 0.00 | 0.00 | 0.00 | 73 | 1015.6 |
| 20260505001803 | 55 | 51 | 0.0 | 3.0 | 0.00 | 0.00 | 0.00 | 72 | 1015.9 |
| 20260505000903 | 55 | 132 | 0.0 | 2.0 | 0.00 | 0.00 | 0.00 | 72 | 1015.8 |
| 20260505000004 | 55 | 76 | 1.0 | 6.0 | 0.00 | 0.00 | 0.00 | 72 | 1015.7 |
| 20260504235617 | 55 | 66 | 1.0 | 6.0 | 0.00 | 0.00 | 0.00 | 72 | 1015.7 |
| 20260504234503 | 55 | 326 | 1.0 | 9.0 | 0.00 | 0.00 | 0.00 | 71 | 1015.8 |
| 20260504233603 | 55 | 3 | 1.0 | 6.0 | 0.00 | 0.00 | 0.00 | 71 | 1016.0 |
| 20260504232703 | 55 | 87 | 2.0 | 11.0 | 0.00 | 0.00 | 0.00 | 70 | 1015.9 |
| 20260504231803 | 55 | 81 | 3.0 | 9.0 | 0.00 | 0.00 | 0.00 | 70 | 1015.5 |
| 20260504230903 | 55 | 96 | 2.0 | 8.0 | 0.00 | 0.00 | 0.00 | 70 | 1015.4 |
| 20260504230004 | 55 | 105 | 3.0 | 15.0 | 0.00 | 0.00 | 0.00 | 70 | 1015.4 |
| 20260504225403 | 55 | 99 | 3.0 | 15.0 | 0.00 | 0.00 | 0.00 | 69 | 1015.5 |
| 20260504224503 | 55 | 101 | 3.0 | 10.0 | 0.00 | 0.00 | 0.00 | 68 | 1015.5 |
| 20260504223603 | 55 | 105 | 3.0 | 11.0 | 0.00 | 0.00 | 0.00 | 67 | 1015.6 |
| 20260504222703 | 55 | 98 | 3.0 | 9.0 | 0.00 | 0.00 | 0.00 | 68 | 1015.9 |
| 20260504222017 | 55 | 102 | 3.0 | 12.0 | 0.00 | 0.00 | 0.00 | 68 | 1016.2 |
| 20260504221114 | 55 | 95 | 3.0 | 8.0 | 0.00 | 0.00 | 0.00 | 69 | 1016.3 |
| 20260504220004 | 55 | 110 | 3.0 | 10.0 | 0.00 | 0.00 | 0.00 | 70 | 1016.4 |
| 20260504215403 | 55 | 118 | 2.0 | 5.0 | 0.00 | 0.00 | 0.00 | 70 | 1016.4 |
| 20260504214503 | 55 | 112 | 2.0 | 8.0 | 0.00 | 0.00 | 0.00 | 70 | 1016.6 |
| 20260504213603 | 55 | 94 | 2.0 | 11.0 | 0.00 | 0.00 | 0.00 | 69 | 1016.6 |
| 20260504212915 | 55 | 76 | 3.0 | 13.0 | 0.00 | 0.00 | 0.00 | 69 | 1016.8 |
| 20260504211803 | 55 | 97 | 3.0 | 12.0 | 0.00 | 0.00 | 0.00 | 71 | 1016.6 |
| 20260504210903 | 55 | 95 | 2.0 | 12.0 | 0.00 | 0.00 | 0.00 | 72 | 1017.0 |
| 20260504210006 | 55 | 90 | 3.0 | 12.0 | 0.00 | 0.00 | 0.00 | 72 | 1016.8 |
| 20260504205614 | 56 | 88 | 3.0 | 12.0 | 0.00 | 0.00 | 0.00 | 72 | 1016.9 |
| 20260504204503 | 56 | 96 | 2.0 | 10.0 | 0.00 | 0.00 | 0.00 | 72 | 1016.9 |
| 20260504203603 | 56 | 98 | 2.0 | 7.0 | 0.00 | 0.00 | 0.00 | 72 | 1017.1 |
| 20260504202703 | 56 | 116 | 2.0 | 7.0 | 0.00 | 0.00 | 0.00 | 71 | 1017.3 |
| 20260504201803 | 56 | 99 | 2.0 | 8.0 | 0.00 | 0.00 | 0.00 | 71 | 1017.3 |
| 20260504201116 | 56 | 87 | 1.0 | 7.0 | 0.00 | 0.00 | 0.00 | 71 | 1017.3 |
| 20260504200218 | 56 | 60 | 1.0 | 8.0 | 0.00 | 0.00 | 0.00 | 71 | 1017.5 |
| 20260504195403 | 56 | 70 | 1.0 | 8.0 | 0.00 | 0.00 | 0.00 | 71 | 1017.5 |
| 20260504194503 | 56 | 82 | 1.0 | 7.0 | 0.00 | 0.00 | 0.00 | 71 | 1017.5 |
| 20260504193814 | 56 | 34 | 2.0 | 7.0 | 0.00 | 0.00 | 0.00 | 71 | 1017.4 |
| 20260504192917 | 56 | 70 | 1.0 | 6.0 | 0.00 | 0.00 | 0.00 | 72 | 1017.7 |
| 20260504191803 | 56 | 112 | 1.0 | 5.0 | 0.00 | 0.00 | 0.00 | 71 | 1017.7 |
| 20260504190903 | 56 | 67 | 1.0 | 6.0 | 0.00 | 0.00 | 0.00 | 72 | 1017.6 |
| 20260504190004 | 56 | 61 | 1.0 | 11.0 | 0.00 | 0.00 | 0.00 | 72 | 1017.6 |
| 20260504185615 | 56 | 63 | 1.0 | 11.0 | 0.00 | 0.00 | 0.00 | 72 | 1017.5 |
| 20260504184503 | 56 | 98 | 2.0 | 8.0 | 0.00 | 0.00 | 0.00 | 71 | 1017.3 |
| 20260504183603 | 56 | 79 | 1.0 | 5.0 | 0.00 | 0.00 | 0.00 | 72 | 1017.3 |
| 20260504182703 | 56 | 351 | 2.0 | 10.0 | 0.00 | 0.00 | 0.00 | 72 | 1017.3 |
| 20260504181804 | 56 | 354 | 3.0 | 11.0 | 0.00 | 0.00 | 0.00 | 73 | 1017.2 |
| 20260504180905 | 57 | 14 | 3.0 | 10.0 | 0.00 | 0.00 | 0.00 | 73 | 1017.0 |
| 20260504180005 | 57 | 353 | 3.0 | 11.0 | 0.00 | 0.00 | 0.00 | 73 | 1017.2 |
| 20260504175405 | 57 | 349 | 2.0 | 9.0 | 0.00 | 0.00 | 0.00 | 71 | 1017.2 |
| 20260504174505 | 57 | 345 | 3.0 | 10.0 | 0.00 | 0.00 | 0.00 | 71 | 1017.2 |
| 20260504173605 | 58 | 332 | 2.0 | 12.0 | 0.00 | 0.00 | 0.00 | 71 | 1017.1 |
| 20260504172705 | 58 | 354 | 3.0 | 10.0 | 0.00 | 0.00 | 0.00 | 71 | 1016.6 |
| 20260504171803 | 58 | 21 | 1.0 | 5.0 | 0.00 | 0.00 | 0.00 | 70 | 1016.8 |
| 20260504170903 | 58 | 354 | 2.0 | 11.0 | 0.00 | 0.00 | 0.00 | 69 | 1016.7 |
| 20260504150905 | 60 | 63 | 3.0 | 10.0 | 0.00 | 0.00 | 0.00 | 63 | 1015.7 |
| 20260504140905 | 63 | 355 | 3.0 | 15.0 | 0.00 | 0.00 | 0.00 | 57 | 1015.7 |